Location: Gudip?du
(17.0263°N, 80.8301°E)
Time: 07:25:17
(UTC+00:00)

OAO 3 Rocket - Pass Details

Date: 03 August 2024
Orbit: 621 x 669 km, 35.0° (Epoch: 10 September)

Event Time Altitude Azimuth Distance (km) Brightness Sun altitude
Rises 14:53:45 0° 311° (NW) 2,893 7.8 -24.0°
Reaches altitude 10° 14:56:12 10° 318° (NW) 1,981 6.6 -24.5°
Enters shadow 15:00:16 41° 19° (NNE) 903 3.9 -25.4°
